This is the latest recevied weather packets stored in our database for station/object DG4DAZ-6. If no packets are shown the sender has not sent any weather packets the latest 10 day(s).
| Time | Temp. | Humidity | Pressure | Rain* | Wind** | Luminosity | Snow |
|---|---|---|---|---|---|---|---|
| 1777709484 | 20° C | 44% | 1019 hPa | 0 mm | - | 528 W/m² | - |
| 1777708883 | 20° C | 41% | 1019.1 hPa | 0 mm | - | 376 W/m² | - |
| 1777708283 | 20° C | 43% | 1019.1 hPa | 0 mm | - | 521 W/m² | - |
| 1777707684 | 19.44° C | 43% | 1019.1 hPa | 0 mm | - | 499 W/m² | - |
| 1777707083 | 18.89° C | 43% | 1019.2 hPa | 0 mm | - | 466 W/m² | - |
| 1777706484 | 18.33° C | 45% | 1019.2 hPa | 0 mm | - | 425 W/m² | - |
| 1777705883 | 17.78° C | 43% | 1019.3 hPa | 0 mm | - | 384 W/m² | - |
| 1777705282 | 17.78° C | 44% | 1019.3 hPa | 0 mm | - | 340 W/m² | - |
| 1777704684 | 17.78° C | 44% | 1019.4 hPa | 0 mm | - | 304 W/m² | - |
| 1777704083 | 17.78° C | 45% | 1019.4 hPa | 0 mm | - | 275 W/m² | - |
| 1777703483 | 17.22° C | 45% | 1019.3 hPa | 0 mm | - | 252 W/m² | - |
| 1777702884 | 16.67° C | 44% | 1019.3 hPa | 0 mm | - | 206 W/m² | - |
| 1777702283 | 16.67° C | 45% | 1019.3 hPa | 0 mm | - | 212 W/m² | - |
| 1777701684 | 16.11° C | 46% | 1019.3 hPa | 0 mm | - | 213 W/m² | - |
| 1777701083 | 15.56° C | 48% | 1019.4 hPa | 0 mm | - | 197 W/m² | - |
| 1777700483 | 15° C | 49% | 1019.2 hPa | 0 mm | - | 167 W/m² | - |
| 1777699884 | 14.44° C | 50% | 1019.2 hPa | 0 mm | - | 34 W/m² | - |
| 1777699283 | 14.44° C | 50% | 1019.3 hPa | 0 mm | - | 32 W/m² | - |
| 1777698683 | 14.44° C | 50% | 1019.3 hPa | 0 mm | - | 25 W/m² | - |
| 1777698084 | 13.89° C | 50% | 1019.3 hPa | 0 mm | - | 22 W/m² | - |
| 1777697483 | 13.89° C | 49% | 1019.4 hPa | 0 mm | - | 19 W/m² | - |
| 1777696883 | 13.89° C | 49% | 1019.5 hPa | 0 mm | - | 15 W/m² | - |
| 1777696284 | 13.89° C | 49% | 1019.6 hPa | 0 mm | - | 12 W/m² | - |
| 1777695683 | 13.89° C | 50% | 1019.6 hPa | 0 mm | - | 9 W/m² | - |
| 1777695083 | 13.89° C | 49% | 1019.6 hPa | 0 mm | - | 5 W/m² | - |
* Rain latest hour (hover to see other rain measurements)
** Current wind speed in m/s (hover to see current wind gust speed)